Weather Roundup
Issued by NWS

Home | Current Version | Previous Version | Graphics & Text | Print | Product List | Glossary Off
Versions: 1 2 3 4 5 6 7 8 9 10 11 12 13 14 15 16 17 18 19 20 21 22 23 24 25 26 27 28 29 30 31 32 33 34 35 36 37 38 39 40 41 42 43 44 45 46 47 48 49 50

000
NZUS93 KARX 280859
HRRWXR

CURRENT HOURLY OBSERVATIONS ACROSS
MUCH OF THE UPPER MISSISSIPPI VALLEY
NATIONAL WEATHER SERVICE LA CROSSE WI
300 AM CST WED JAN 28 2015


...SOUTHEAST MINNESOTA...


CITY           SKY/WX    TMP DP  RH WIND       PRES   REMARKS
ROCHESTER      CLOUDY    26  24  92 S15       30.09F WCI  14
ROCHESTER/MAYO CLOUDY    26  23  88 SE13G18   30.10S WCI  15
WINONA         CLOUDY    30  27  86 SE8       30.16F WCI  23
AUSTIN         CLOUDY    28  27  93 SE9G18    30.08F FOG     WCI  20
ALBERT LEA     CLOUDY    28  28 100 SE16      30.07R FOG     WCI  17
DODGE CENTER   CLOUDY    27  27 100 S17       30.07F FOG     WCI  14
PRESTON        CLOUDY    24  23  93 SE12      30.11F WCI  13
OWATONNA       CLOUDY    28  27  93 SE14      30.07F WCI  17
FARIBAULT      CLOUDY    30  27  86 SE10      30.08S WCI  21
$$

...ELSEWHERE IN MINNESOTA...


CITY           SKY/WX    TMP DP  RH WIND       PRES   REMARKS
MINNEAPOLIS    CLOUDY    30  25  81 SE13      30.08F WCI  20
INTNL FALLS    CLOUDY    26  23  88 SE5       29.97F WCI  20
DULUTH         MOCLDY    24  19  81 S9        30.03F WCI  14
RED WING       CLOUDY    28  25  86 S9        30.11S WCI  20
REDWOOD FALLS  CLOUDY    33  30  88 SE20      29.98F WCI  21
MANKATO        CLOUDY    30  27  86 SE14G21   30.05S WCI  20
WORTHINGTON    CLEAR     30  28  93 SE14G20   29.94F WCI  20
FAIRMONT       CLOUDY    30  27  86 SE16G22   30.01F WCI  19
$$

...SOUTHWEST WISCONSIN...


CITY           SKY/WX    TMP DP  RH WIND       PRES   REMARKS
LA CROSSE      CLOUDY    28  22  78 S14       30.17F WCI  17
PRAIRIE DU CHI CLOUDY    27  22  82 SE7       30.20F HAZE    WCI  19
BOSCOBEL       CLOUDY    28  22  78 VRB6      30.20F WCI  22
LONE ROCK      CLOUDY    28  22  78 S9        30.21F WCI  19
PLATTEVILLE    CLOUDY    27  24  87 S10       30.20S WCI  17
FORT MC COY    CLOUDY    26  22  84 S6        30.19F WCI  20
CAMP DOUGLAS   CLOUDY    27  27 100 S8        30.18F WCI  18
VIROQUA        CLOUDY    25  25 100 S7        30.15F WCI  17
WIS DELLS      NOT AVBL
$$

...ELSEWHERE IN WISCONSIN...


CITY           SKY/WX    TMP DP  RH WIND       PRES   REMARKS
MILWAUKEE      PTCLDY    24  16  71 CALM      30.27R
MADISON        CLOUDY    25  19  78 S10       30.22S WCI  15
GREEN BAY      MOCLDY    16  13  88 S3        30.24F
EAU CLAIRE     CLOUDY    26  20  77 S9        30.13F WCI  17
BLACK RVR FLS  CLOUDY    26  22  84 CALM      30.17F
MEDFORD        CLOUDY    23  21  93 S7        30.14R FOG     WCI  15
WAUSAU         CLOUDY    23  19  85 SE8       30.15F WCI  14
WIS RAPIDS     CLOUDY    24  20  84 S5        30.20R WCI  18
MARSHFIELD     CLOUDY    24  21  88 S6        30.15F FOG     WCI  17
RICE LAKE      CLOUDY    25  21  84 SE10      30.13F WCI  15
$$

...NORTHEAST IOWA...


CITY           SKY/WX    TMP DP  RH WIND       PRES   REMARKS
DECORAH        CLOUDY    25  23  93 SE12      30.14F WCI  14
MASON CITY     CLOUDY    28  27  96 SE18G24   30.09F FOG     WCI  15
CHARLES CITY   CLOUDY    28  28 100 SE16      30.12S FOG     WCI  17
OELWEIN        CLOUDY    27  25  93 SE15      30.15F FOG     WCI  15
$$

...ELSEWHERE IN IOWA...


CITY           SKY/WX    TMP DP  RH WIND       PRES   REMARKS
DES MOINES     CLOUDY    30  27  88 SE13      30.08F FOG     WCI  20
IOWA CITY      CLOUDY    27  24  89 SE13      30.20F FOG     WCI  16
FORT DODGE     CLOUDY    30  27  86 SE8G16    30.05R WCI  23
$$

...NORTHERN ILLINOIS...


CITY           SKY/WX    TMP DP  RH WIND       PRES   REMARKS
CHICAGO-OHARE  MOCLDY    23  19  85 CALM      30.26S
CHICAGO-MIDWAY PTCLDY    26  20  77 SW3       30.28R
MOLINE         CLOUDY    28  24  85 SE8       30.22F WCI  20
ROCKFORD       CLOUDY    23  17  78 SE5       30.26F WCI  17
PEORIA         MOCLDY    29  23  78 SE5       30.25F WCI  24
$$

NOTE: "FAIR" INDICATES FEW OR NO CLOUDS BELOW 12,000 FEET WITH NO
SIGNIFICANT WEATHER AND/OR OBSTRUCTIONS TO VISIBILITY. WIND
SPEEDS ARE IN MILES-PER-HOUR.



USA.gov is the U.S. government's official web portal to all federal, state and local government web resources and services.